Beatrice, NE

11:41 AM CDT on April 29, 2017 (GMT -0500)
Beatrice Municipal

Weather History for KBIE - September, 2013

Change the Weather History Date:

Wednesday, September 25, 2013

  Actual Average Record
Temperature  
Mean Temperature 64 °F -  
Max Temperature 80 °F 76 °F 93 °F (1998)
Min Temperature 47 °F 50 °F 35 °F (1975)
Degree Days  
Heating Degree Days 2    
Growing Degree Days 14 (Base 50)    
Moisture  
Dew Point 56 °F    
Average Humidity 77    
Maximum Humidity 100    
Minimum Humidity 45    
Precipitation  
Precipitation 0.00 in - - ()
Sea Level Pressure  
Sea Level Pressure 29.85 in    
Wind  
Wind Speed 4 mph (SSE)    
Max Wind Speed 14 mph    
Max Gust Speed 21 mph    
Visibility 7 miles    
Events Fog    
Averages and records for this station are not official NWS values.
T = Trace of Precipitation, MM = Missing Value Source: NWS Daily Summary

Daily Weather History Graph

Daily Weather History Graph

Search for Another Location

Airport or City:

Trip Planner

Search our weather history database for the weather conditions in past years. The results will help you decide how hot, cold, wet, or windy it might be!

Date:

Astronomy

Sep. 25, 2013 Rise Set
Actual Time 7:17 AM CDT 7:18 PM CDT
Civil Twilight 6:50 AM CDT 7:45 PM CDT
Nautical Twilight 6:18 AM CDT 8:17 PM CDT
Astronomical Twilight 5:46 AM CDT 8:49 PM CDT
Moon 11:25 PM CDT (9/25) 1:24 PM CDT (9/25)
Length of Visible Light 12h 55m
Length of Day
12h 00m
Waning Gibbous, 64% of the Moon is Illuminated
Sep 25
Waning Gibbous
Sep 26
Last Quarter
Oct 4
New
Oct 11
First Quarter
Oct 18
Full

Hourly Weather History & Observations

Time (CDT) Temp. Heat Index Dew Point Humidity Pressure Visibility Wind Dir Wind Speed Gust Speed Precip Events Conditions
12:15 AM 53.4 °F - 52.9 °F 98% 29.92 in 4.0 mi Calm Calm - N/A   Clear
12:35 AM 53.6 °F - 52.7 °F 97% 29.91 in 7.0 mi Calm Calm - N/A   Clear
12:55 AM 53.1 °F - 52.3 °F 97% 29.91 in 7.0 mi Calm Calm - N/A   Clear
1:15 AM 52.5 °F - 51.4 °F 96% 29.91 in 7.0 mi Calm Calm - N/A   Clear
1:35 AM 51.8 °F - 50.5 °F 95% 29.91 in 7.0 mi Calm Calm - N/A   Clear
1:55 AM 51.8 °F - 50.5 °F 95% 29.91 in 3.0 mi Calm Calm - N/A   Mist
2:35 AM 50.7 °F - 49.1 °F 94% 29.91 in 10.0 mi Calm Calm - N/A   Clear
2:55 AM 49.6 °F - 48.6 °F 96% 29.91 in 5.0 mi West 3.5 mph - N/A   Clear
3:15 AM 50.0 °F - 49.3 °F 97% 29.91 in 5.0 mi Calm Calm - N/A   Clear
3:35 AM 50.0 °F - 49.5 °F 98% 29.91 in 7.0 mi Calm Calm - N/A   Clear
3:55 AM 50.0 °F - 49.3 °F 97% 29.91 in 7.0 mi WNW 3.5 mph - N/A   Clear
4:35 AM 49.6 °F - 49.3 °F 99% 29.91 in 5.0 mi WNW 3.5 mph - N/A   Clear
4:55 AM 49.6 °F - 49.3 °F 99% 29.91 in 5.0 mi Calm Calm - N/A   Clear
5:15 AM 49.5 °F - 49.5 °F 100% 29.91 in 3.0 mi Calm Calm - N/A   Mist
5:35 AM 49.6 °F - 48.9 °F 97% 29.91 in 3.0 mi Calm Calm - N/A   Mist
5:55 AM 49.3 °F - 48.6 °F 97% 29.91 in 4.0 mi Calm Calm - N/A   Clear
6:15 AM 47.8 °F - 47.3 °F 98% 29.91 in 0.8 mi Calm Calm - N/A   Mostly Cloudy
6:35 AM 48.6 °F - 48.6 °F 100% 29.91 in 0.5 mi Calm Calm - N/A Fog Fog
6:55 AM 49.1 °F - 49.1 °F 100% 29.91 in 0.2 mi Calm Calm - N/A Fog Fog
7:15 AM 48.4 °F - 48.4 °F 100% 29.91 in 0.2 mi Calm Calm - N/A Fog Fog
7:35 AM 48.6 °F - 48.6 °F 100% 29.91 in 0.2 mi Calm Calm - N/A Fog Fog
7:55 AM 49.1 °F - 49.1 °F 100% 29.92 in 0.2 mi Calm Calm - N/A Fog Fog
8:15 AM 50.4 °F - 50.4 °F 100% 29.91 in 0.2 mi Calm Calm - N/A Fog Fog
8:35 AM 50.7 °F - 50.7 °F 100% 29.91 in 0.2 mi Calm Calm - N/A Fog Fog
8:55 AM 52.2 °F - 52.2 °F 100% 29.92 in 0.2 mi Calm Calm - N/A Fog Fog
9:15 AM 54.1 °F - 54.1 °F 100% 29.93 in 0.2 mi Calm Calm - N/A Fog Fog
9:35 AM 56.8 °F - 56.7 °F 99% 29.92 in 1.5 mi Calm Calm - N/A   Mostly Cloudy
9:55 AM 61.7 °F - 59.7 °F 93% 29.92 in 7.0 mi SE 4.6 mph - N/A   Clear
10:15 AM 64.0 °F - 60.1 °F 87% 29.92 in 10.0 mi SE 6.9 mph - N/A   Clear
10:35 AM 65.8 °F - 60.8 °F 84% 29.92 in 10.0 mi SSE 5.8 mph - N/A   Clear
10:55 AM 67.3 °F - 60.8 °F 80% 29.91 in 10.0 mi SE 9.2 mph - N/A   Clear
11:15 AM 70.5 °F - 62.2 °F 75% 29.91 in 10.0 mi SE 8.1 mph - N/A   Clear
11:35 AM 71.6 °F - 61.3 °F 70% 29.90 in 10.0 mi ESE 10.4 mph - N/A   Clear
11:55 AM 73.2 °F - 60.3 °F 64% 29.89 in 10.0 mi SSE 11.5 mph - N/A   Scattered Clouds
12:15 PM 73.2 °F - 60.3 °F 64% 29.89 in 10.0 mi South 8.1 mph - N/A   Scattered Clouds
12:35 PM 74.5 °F - 60.4 °F 61% 29.88 in 10.0 mi SSE 10.4 mph - N/A   Scattered Clouds
1:15 PM 75.4 °F - 58.6 °F 56% 29.86 in 10.0 mi SSE 10.4 mph - N/A   Clear
1:35 PM 76.5 °F - 59.0 °F 55% 29.85 in 10.0 mi South 11.5 mph - N/A   Clear
1:55 PM 77.2 °F - 58.8 °F 53% 29.84 in 10.0 mi SSE 11.5 mph 17.3 mph N/A   Scattered Clouds
2:15 PM 77.9 °F - 58.3 °F 51% 29.83 in 10.0 mi SE 10.4 mph 17.3 mph N/A   Scattered Clouds
2:35 PM 78.4 °F - 57.4 °F 48% 29.82 in 10.0 mi SSE 12.7 mph 18.4 mph N/A   Clear
2:55 PM 78.8 °F - 58.1 °F 49% 29.81 in 10.0 mi SSE 10.4 mph - N/A   Clear
3:15 PM 79.2 °F - 57.9 °F 48% 29.81 in 10.0 mi SSE 10.4 mph - N/A   Clear
3:55 PM 79.7 °F - 57.0 °F 46% 29.79 in 10.0 mi SSE 10.4 mph 17.3 mph N/A   Clear
4:15 PM 79.9 °F - 57.0 °F 45% 29.78 in 10.0 mi SSE 13.8 mph 18.4 mph N/A   Clear
4:35 PM 80.1 °F 80.4 °F 57.0 °F 45% 29.77 in 10.0 mi SSE 13.8 mph 20.7 mph N/A   Clear
4:55 PM 80.1 °F 80.5 °F 57.6 °F 46% 29.77 in 10.0 mi SE 11.5 mph - N/A   Clear
5:15 PM 79.7 °F - 57.9 °F 47% 29.77 in 10.0 mi SE 11.5 mph - N/A   Clear
5:35 PM 79.2 °F - 57.9 °F 48% 29.76 in 10.0 mi SSE 12.7 mph 19.6 mph N/A   Clear
5:55 PM 78.8 °F - 57.6 °F 48% 29.76 in 10.0 mi SSE 13.8 mph 19.6 mph N/A   Clear
6:15 PM 78.1 °F - 58.1 °F 50% 29.76 in 10.0 mi SE 13.8 mph 18.4 mph N/A   Clear
6:35 PM 77.0 °F - 58.1 °F 52% 29.75 in 10.0 mi SE 12.7 mph - N/A   Clear
6:55 PM 75.7 °F - 58.3 °F 55% 29.75 in 10.0 mi SE 10.4 mph - N/A   Clear
7:15 PM 74.3 °F - 58.3 °F 57% 29.75 in 10.0 mi SE 10.4 mph - N/A   Clear
7:35 PM 72.9 °F - 58.3 °F 60% 29.74 in 10.0 mi SE 10.4 mph - N/A   Clear
7:55 PM 71.8 °F - 58.3 °F 62% 29.74 in 10.0 mi SE 9.2 mph - N/A   Clear
8:15 PM 70.9 °F - 58.3 °F 64% 29.74 in 10.0 mi SE 9.2 mph - N/A   Clear
8:35 PM 70.2 °F - 58.6 °F 67% 29.75 in 10.0 mi SE 10.4 mph - N/A   Clear
8:55 PM 69.4 °F - 58.6 °F 68% 29.75 in 10.0 mi SE 10.4 mph - N/A   Clear
9:15 PM 68.7 °F - 58.6 °F 70% 29.76 in 10.0 mi SE 10.4 mph - N/A   Clear
9:35 PM 68.2 °F - 59.0 °F 72% 29.77 in 10.0 mi SSE 11.5 mph 16.1 mph N/A   Clear
9:55 PM 67.6 °F - 59.2 °F 74% 29.77 in 10.0 mi SE 10.4 mph - N/A   Clear
10:15 PM 67.5 °F - 59.5 °F 76% 29.77 in 10.0 mi SE 10.4 mph - N/A   Clear
10:35 PM 66.9 °F - 59.9 °F 78% 29.78 in 10.0 mi SE 8.1 mph - N/A   Clear
10:55 PM 66.6 °F - 60.1 °F 80% 29.78 in 10.0 mi SE 10.4 mph 16.1 mph N/A   Clear
11:15 PM 66.4 °F - 60.1 °F 80% 29.78 in 10.0 mi SE 10.4 mph - N/A   Clear
11:35 PM 65.7 °F - 60.1 °F 82% 29.77 in 10.0 mi SE 11.5 mph - N/A   Clear
11:55 PM 65.8 °F - 60.3 °F 82% 29.77 in 10.0 mi SE 10.4 mph - N/A   Clear